SAV3BM EGGD-EGNV

Flight info

Callsign SAV3BM
Flight time 0h 52m
Altitude 24000
Route BCN P69 FEBWI/N0396F240 P69 DIZIM N864 AVTIC N38 NOKIN P17 POL P18 GASKO
Aircraft CRJ7/M-SDFGIRWY/S

Departure

Time 2026-04-21 11:30
Airport Bristol Airport (EGGD)

Arrival

Time 2026-04-21 12:23
Airport Teesside International Airport (EGNV)
Time Latitude Longitude Altitude Speed Heading
2026-04-21 11:18 51.38518 -2.71341 610 ft 0 kts 356°
2026-04-21 11:22 51.38515 -2.71341 610 ft 2 kts 356°
2026-04-21 11:22 51.38499 -2.71339 615 ft 2 kts 356°
2026-04-21 11:22 51.38482 -2.71338 632 ft 2 kts 355°
2026-04-21 11:23 51.38466 -2.71335 615 ft 2 kts 352°
2026-04-21 11:23 51.38451 -2.71325 629 ft 2 kts 304°
2026-04-21 11:23 51.38449 -2.71317 629 ft 0 kts 278°
2026-04-21 11:25 51.38450 -2.71324 629 ft 2 kts 275°
2026-04-21 11:26 51.38447 -2.71373 620 ft 7 kts 265°
2026-04-21 11:26 51.38444 -2.71470 614 ft 11 kts 268°
2026-04-21 11:26 51.38439 -2.71614 625 ft 15 kts 266°
2026-04-21 11:26 51.38432 -2.71794 614 ft 17 kts 268°
2026-04-21 11:27 51.38432 -2.71978 614 ft 17 kts 270°
2026-04-21 11:27 51.38429 -2.72158 619 ft 14 kts 264°
2026-04-21 11:27 51.38420 -2.72298 622 ft 12 kts 265°
2026-04-21 11:27 51.38415 -2.72418 624 ft 10 kts 266°
2026-04-21 11:28 51.38411 -2.72528 627 ft 12 kts 266°
2026-04-21 11:28 51.38404 -2.72699 630 ft 18 kts 266°
2026-04-21 11:28 51.38397 -2.72920 623 ft 22 kts 267°
2026-04-21 11:28 51.38386 -2.73168 619 ft 21 kts 266°
2026-04-21 11:29 51.38336 -2.73335 619 ft 16 kts 200°
2026-04-21 11:29 51.38236 -2.73330 622 ft 13 kts 156°
2026-04-21 11:29 51.38214 -2.73252 624 ft 0 kts 87°
2026-04-21 11:29 51.38225 -2.72961 628 ft 66 kts 86°
2026-04-21 11:30 51.38274 -2.71753 631 ft 144 kts 90°
2026-04-21 11:30 51.38244 -2.70066 1213 ft 157 kts 95°
2026-04-21 11:30 51.38130 -2.68221 2015 ft 179 kts 93°
2026-04-21 11:30 51.38058 -2.66102 2838 ft 199 kts 96°
2026-04-21 11:31 51.38166 -2.63916 3984 ft 200 kts 74°
2026-04-21 11:31 51.38493 -2.61686 4944 ft 216 kts 79°
2026-04-21 11:31 51.38723 -2.59145 5473 ft 253 kts 84°
2026-04-21 11:31 51.39118 -2.56113 5487 ft 306 kts 66°
2026-04-21 11:32 51.40556 -2.53380 5521 ft 328 kts 38°
2026-04-21 11:32 51.42617 -2.52098 5594 ft 316 kts
2026-04-21 11:32 51.44749 -2.52579 5705 ft 309 kts 339°
2026-04-21 11:32 51.46411 -2.54604 5788 ft 303 kts 310°
2026-04-21 11:33 51.47672 -2.57261 6038 ft 297 kts 312°
2026-04-21 11:33 51.48931 -2.59798 7320 ft 289 kts 300°
2026-04-21 11:33 51.49389 -2.62887 8404 ft 286 kts 266°
2026-04-21 11:33 51.48771 -2.65855 9399 ft 283 kts 234°
2026-04-21 11:34 51.47309 -2.67937 10236 ft 284 kts 214°
2026-04-21 11:34 51.45987 -2.70263 10951 ft 286 kts 246°
2026-04-21 11:34 51.45639 -2.73361 11622 ft 289 kts 276°
2026-04-21 11:34 51.46344 -2.76482 11717 ft 312 kts 307°
2026-04-21 11:35 51.48034 -2.78747 12092 ft 324 kts 335°
2026-04-21 11:35 51.50099 -2.80242 12976 ft 326 kts 336°
2026-04-21 11:35 51.52105 -2.81886 13862 ft 329 kts 331°
2026-04-21 11:35 51.54036 -2.83887 14740 ft 330 kts 323°
2026-04-21 11:36 51.55808 -2.86324 15496 ft 341 kts 316°
2026-04-21 11:36 51.57455 -2.89212 15855 ft 361 kts 310°
2026-04-21 11:36 51.59018 -2.92575 15865 ft 384 kts 305°
2026-04-21 11:36 51.60446 -2.96126 15902 ft 373 kts 303°
2026-04-21 11:37 51.61812 -2.99663 15941 ft 377 kts 303°
2026-04-21 11:37 51.63238 -3.03345 16208 ft 388 kts 303°
2026-04-21 11:37 51.64636 -3.06848 16249 ft 356 kts 304°
2026-04-21 11:37 51.65936 -3.10058 16213 ft 332 kts 304°
2026-04-21 11:38 51.67224 -3.13225 16252 ft 355 kts 304°
2026-04-21 11:38 51.68621 -3.16666 16603 ft 375 kts 304°
2026-04-21 11:38 51.70180 -3.20118 17095 ft 387 kts 315°
2026-04-21 11:38 51.72464 -3.22525 17512 ft 404 kts 337°
2026-04-21 11:39 51.75242 -3.23729 17899 ft 421 kts 347°
2026-04-21 11:39 51.78163 -3.24491 18530 ft 427 kts 351°
2026-04-21 11:39 51.81091 -3.24622 19027 ft 409 kts
2026-04-21 11:39 51.83804 -3.23895 19001 ft 383 kts
2026-04-21 11:40 51.86321 -3.23032 18985 ft 365 kts
2026-04-21 11:40 51.88773 -3.22252 18963 ft 353 kts
2026-04-21 11:40 51.91225 -3.21600 18975 ft 368 kts
2026-04-21 11:40 51.93824 -3.20984 19498 ft 378 kts
2026-04-21 11:41 51.96412 -3.20339 20492 ft 373 kts
2026-04-21 11:41 51.98954 -3.19711 21534 ft 367 kts
2026-04-21 11:41 52.01471 -3.19086 22507 ft 364 kts
2026-04-21 11:41 52.03963 -3.18474 23411 ft 360 kts
2026-04-21 11:42 52.06459 -3.18115 23997 ft 362 kts 356°
2026-04-21 11:42 52.09019 -3.17972 24222 ft 375 kts 355°
2026-04-21 11:42 52.11642 -3.17867 24338 ft 387 kts 355°
2026-04-21 11:42 52.14348 -3.17753 24391 ft 390 kts 355°
2026-04-21 11:43 52.17083 -3.17582 24420 ft 397 kts 356°
2026-04-21 11:43 52.19863 -3.17374 24430 ft 401 kts 356°
2026-04-21 11:43 52.22653 -3.17160 24442 ft 403 kts 357°
2026-04-21 11:43 52.25465 -3.16942 24448 ft 405 kts 357°
2026-04-21 11:44 52.27331 -3.16797 24445 ft 405 kts 357°
2026-04-21 11:44 52.30117 -3.16575 24452 ft 397 kts 357°
2026-04-21 11:44 52.32861 -3.16351 24440 ft 391 kts 357°
2026-04-21 11:44 52.35550 -3.16107 24438 ft 385 kts 357°
2026-04-21 11:45 52.38210 -3.15853 24441 ft 380 kts 357°
2026-04-21 11:45 52.40838 -3.15630 24439 ft 375 kts 357°
2026-04-21 11:45 52.43433 -3.15423 24435 ft 371 kts 357°
2026-04-21 11:45 52.46002 -3.15223 24445 ft 369 kts 357°
2026-04-21 11:46 52.48569 -3.15023 24430 ft 369 kts 357°
2026-04-21 11:46 52.51142 -3.14823 24394 ft 370 kts 357°
2026-04-21 11:46 52.53681 -3.14625 24369 ft 370 kts 357°
2026-04-21 11:46 52.56258 -3.14423 24362 ft 370 kts 358°
2026-04-21 11:47 52.58830 -3.14217 24361 ft 370 kts 358°
2026-04-21 11:47 52.61398 -3.14010 24361 ft 369 kts 358°
2026-04-21 11:47 52.63968 -3.13810 24368 ft 369 kts 358°
2026-04-21 11:47 52.66530 -3.13616 24366 ft 369 kts 358°
2026-04-21 11:48 52.69094 -3.13416 24364 ft 368 kts 358°
2026-04-21 11:48 52.71647 -3.12961 24369 ft 373 kts
2026-04-21 11:48 52.74129 -3.11646 24367 ft 377 kts 16°
2026-04-21 11:48 52.76537 -3.09858 24370 ft 380 kts 20°
2026-04-21 11:49 52.78902 -3.07902 24369 ft 380 kts 21°
2026-04-21 11:49 52.81264 -3.05920 24372 ft 380 kts 21°
2026-04-21 11:49 52.83633 -3.03978 24369 ft 379 kts 20°
2026-04-21 11:49 52.85983 -3.02132 24370 ft 379 kts 20°
2026-04-21 11:50 52.88366 -3.00259 24373 ft 378 kts 20°
2026-04-21 11:50 52.90759 -2.98473 24377 ft 376 kts 17°
2026-04-21 11:50 52.93214 -2.96950 24375 ft 375 kts 14°
2026-04-21 11:50 52.95676 -2.95545 24391 ft 374 kts 14°
2026-04-21 11:51 52.98139 -2.94136 24395 ft 375 kts 14°
2026-04-21 11:51 53.00612 -2.92678 24393 ft 378 kts 16°
2026-04-21 11:51 53.03086 -2.91174 24395 ft 379 kts 16°
2026-04-21 11:51 53.05568 -2.89658 24400 ft 381 kts 16°
2026-04-21 11:52 53.08022 -2.87964 24401 ft 385 kts 24°
2026-04-21 11:52 53.10321 -2.85628 24404 ft 389 kts 31°
2026-04-21 11:52 53.12530 -2.82975 24404 ft 392 kts 33°
2026-04-21 11:52 53.14724 -2.80266 24401 ft 393 kts 33°
2026-04-21 11:53 53.16937 -2.77577 24400 ft 394 kts 32°
2026-04-21 11:53 53.19188 -2.74961 24401 ft 395 kts 31°
2026-04-21 11:53 53.21449 -2.72362 24399 ft 396 kts 32°
2026-04-21 11:53 53.23720 -2.69739 24407 ft 397 kts 32°
2026-04-21 11:54 53.25989 -2.67115 24405 ft 398 kts 32°
2026-04-21 11:54 53.28276 -2.64502 24405 ft 399 kts 32°
2026-04-21 11:54 53.30572 -2.61882 24399 ft 400 kts 32°
2026-04-21 11:54 53.32838 -2.59295 24403 ft 400 kts 32°
2026-04-21 11:55 53.35143 -2.56665 24403 ft 401 kts 32°
2026-04-21 11:55 53.37449 -2.54034 24406 ft 402 kts 33°
2026-04-21 11:55 53.39760 -2.51380 24403 ft 402 kts 33°
2026-04-21 11:55 53.41317 -2.49582 24404 ft 403 kts 34°
2026-04-21 11:56 53.42818 -2.47844 24405 ft 403 kts 34°
2026-04-21 11:56 53.45126 -2.45163 24401 ft 404 kts 34°
2026-04-21 11:56 53.47441 -2.42474 24397 ft 404 kts 35°
2026-04-21 11:56 53.49738 -2.39740 24405 ft 404 kts 36°
2026-04-21 11:57 53.52030 -2.37018 24401 ft 404 kts 36°
2026-04-21 11:57 53.54331 -2.34293 24402 ft 404 kts 36°
2026-04-21 11:57 53.56631 -2.31564 24410 ft 405 kts 37°
2026-04-21 11:57 53.58931 -2.28822 24411 ft 405 kts 37°
2026-04-21 11:58 53.61232 -2.26078 24412 ft 405 kts 37°
2026-04-21 11:58 53.63531 -2.23334 24405 ft 405 kts 37°
2026-04-21 11:58 53.65798 -2.20621 24416 ft 405 kts 37°
2026-04-21 11:58 53.68099 -2.17875 24423 ft 405 kts 37°
2026-04-21 11:59 53.70398 -2.15131 24435 ft 405 kts 38°
2026-04-21 11:59 53.72705 -2.12381 24429 ft 405 kts 37°
2026-04-21 11:59 53.75236 -2.10260 24421 ft 409 kts 22°
2026-04-21 11:59 53.77987 -2.08934 24419 ft 412 kts 15°
2026-04-21 12:00 53.80808 -2.08090 24432 ft 413 kts 11°
2026-04-21 12:00 53.83649 -2.07380 24425 ft 413 kts 11°
2026-04-21 12:00 53.86488 -2.06659 24430 ft 412 kts 12°
2026-04-21 12:00 53.89316 -2.05838 24423 ft 411 kts 13°
2026-04-21 12:01 53.92123 -2.04940 24437 ft 411 kts 14°
2026-04-21 12:01 53.94937 -2.04033 24436 ft 411 kts 14°
2026-04-21 12:01 53.97742 -2.03131 24434 ft 411 kts 14°
2026-04-21 12:01 54.00539 -2.02258 24424 ft 410 kts 14°
2026-04-21 12:02 54.03361 -2.01379 24430 ft 410 kts 13°
2026-04-21 12:02 54.08978 -1.99702 24431 ft 409 kts 12°
2026-04-21 12:02 54.11785 -1.98890 24442 ft 408 kts 13°
2026-04-21 12:03 54.14581 -1.98061 24455 ft 408 kts 14°
2026-04-21 12:03 54.17374 -1.97197 24465 ft 408 kts 14°
2026-04-21 12:03 54.20158 -1.96267 24461 ft 406 kts 18°
2026-04-21 12:03 54.22677 -1.94276 24471 ft 396 kts 37°
2026-04-21 12:04 54.24855 -1.91428 24478 ft 393 kts 45°
2026-04-21 12:04 54.26738 -1.88208 24479 ft 391 kts 50°
2026-04-21 12:04 54.28536 -1.84732 24481 ft 391 kts 52°
2026-04-21 12:04 54.30326 -1.81216 24476 ft 391 kts 52°
2026-04-21 12:05 54.32138 -1.77738 24474 ft 391 kts 50°
2026-04-21 12:05 54.33993 -1.74320 24476 ft 392 kts 50°
2026-04-21 12:05 54.35862 -1.70894 24480 ft 392 kts 49°
2026-04-21 12:05 54.37733 -1.67461 24177 ft 392 kts 50°
2026-04-21 12:06 54.39577 -1.64072 23668 ft 385 kts 49°
2026-04-21 12:06 54.41374 -1.60769 23142 ft 380 kts 49°
2026-04-21 12:06 54.43152 -1.57500 22646 ft 376 kts 49°
2026-04-21 12:06 54.44883 -1.54235 22142 ft 362 kts 51°
2026-04-21 12:07 54.46528 -1.51052 21631 ft 351 kts 50°
2026-04-21 12:07 54.48161 -1.48003 21118 ft 341 kts 50°
2026-04-21 12:07 54.49753 -1.45031 20633 ft 333 kts 51°
2026-04-21 12:07 54.51289 -1.42105 20152 ft 326 kts 50°
2026-04-21 12:08 54.52813 -1.39314 19684 ft 319 kts 50°
2026-04-21 12:08 54.54327 -1.36564 19219 ft 313 kts 49°
2026-04-21 12:08 54.55824 -1.33882 18753 ft 308 kts 46°
2026-04-21 12:08 54.57685 -1.32115 18244 ft 310 kts 17°
2026-04-21 12:09 54.59836 -1.32173 17746 ft 314 kts 347°
2026-04-21 12:09 54.61757 -1.33943 17270 ft 314 kts 326°
2026-04-21 12:09 54.63459 -1.36294 16766 ft 313 kts 322°
2026-04-21 12:09 54.65101 -1.38731 16291 ft 310 kts 321°
2026-04-21 12:10 54.66540 -1.41480 15827 ft 309 kts 299°
2026-04-21 12:10 54.67078 -1.45005 15379 ft 304 kts 268°
2026-04-21 12:10 54.66566 -1.48449 14934 ft 295 kts 237°
2026-04-21 12:10 54.65423 -1.51418 14489 ft 299 kts 230°
2026-04-21 12:11 54.64168 -1.54298 14012 ft 302 kts 228°
2026-04-21 12:11 54.62862 -1.57175 13516 ft 306 kts 227°
2026-04-21 12:11 54.61526 -1.60060 13027 ft 309 kts 227°
2026-04-21 12:11 54.60195 -1.62910 12539 ft 307 kts 227°
2026-04-21 12:12 54.58858 -1.65770 12060 ft 306 kts 227°
2026-04-21 12:12 54.57521 -1.68621 11581 ft 305 kts 227°
2026-04-21 12:12 54.56191 -1.71463 11102 ft 303 kts 227°
2026-04-21 12:12 54.54866 -1.74293 10641 ft 302 kts 227°
2026-04-21 12:13 54.53550 -1.77103 10156 ft 300 kts 227°
2026-04-21 12:13 54.52240 -1.79903 9633 ft 298 kts 227°
2026-04-21 12:13 54.50944 -1.82677 9130 ft 296 kts 227°
2026-04-21 12:13 54.49673 -1.85397 8639 ft 294 kts 227°
2026-04-21 12:14 54.48394 -1.88140 8143 ft 292 kts 227°
2026-04-21 12:14 54.47128 -1.90855 7644 ft 290 kts 227°
2026-04-21 12:14 54.45874 -1.93547 7176 ft 287 kts 227°
2026-04-21 12:14 54.44546 -1.96050 6686 ft 277 kts 210°
2026-04-21 12:15 54.42822 -1.97098 6205 ft 256 kts 175°
2026-04-21 12:15 54.41196 -1.96303 5736 ft 238 kts 142°
2026-04-21 12:15 54.39874 -1.94633 5223 ft 235 kts 137°
2026-04-21 12:15 54.38716 -1.92763 4711 ft 227 kts 118°
2026-04-21 12:16 54.38373 -1.90227 4221 ft 218 kts 88°
2026-04-21 12:16 54.38484 -1.87623 3729 ft 218 kts 83°
2026-04-21 12:16 54.38656 -1.85038 3334 ft 216 kts 82°
2026-04-21 12:16 54.38844 -1.82563 3250 ft 199 kts 81°
2026-04-21 12:17 54.39032 -1.80215 2874 ft 203 kts 81°
2026-04-21 12:17 54.39235 -1.77769 2359 ft 211 kts 81°
2026-04-21 12:17 54.39449 -1.75253 1978 ft 212 kts 81°
2026-04-21 12:17 54.39648 -1.72824 1794 ft 198 kts 81°
2026-04-21 12:18 54.39829 -1.70575 1704 ft 181 kts 81°
2026-04-21 12:18 54.40000 -1.68545 1694 ft 168 kts 81°
2026-04-21 12:18 54.40157 -1.66624 1677 ft 159 kts 81°
2026-04-21 12:18 54.40303 -1.64744 1670 ft 159 kts 81°
2026-04-21 12:19 54.40451 -1.62865 1656 ft 157 kts 79°
2026-04-21 12:19 54.40963 -1.61308 1691 ft 151 kts 46°
2026-04-21 12:19 54.41712 -1.60050 1677 ft 149 kts 48°
2026-04-21 12:19 54.42429 -1.58779 1697 ft 147 kts 49°
2026-04-21 12:20 54.43129 -1.57513 1693 ft 145 kts 49°
2026-04-21 12:20 54.43808 -1.56266 1688 ft 141 kts 50°
2026-04-21 12:20 54.44468 -1.55016 1723 ft 142 kts 51°
2026-04-21 12:20 54.45146 -1.53743 1714 ft 147 kts 51°
2026-04-21 12:21 54.45841 -1.52428 1499 ft 148 kts 51°
2026-04-21 12:21 54.46527 -1.51136 1274 ft 146 kts 50°
2026-04-21 12:21 54.47193 -1.49885 1050 ft 133 kts 49°
2026-04-21 12:21 54.47794 -1.48773 850 ft 129 kts 49°
2026-04-21 12:22 54.48438 -1.47581 687 ft 141 kts 49°
2026-04-21 12:22 54.49098 -1.46361 483 ft 136 kts 50°
2026-04-21 12:22 54.49733 -1.45188 355 ft 131 kts 51°
2026-04-21 12:22 54.50326 -1.44066 152 ft 121 kts 51°
2026-04-21 12:23 54.50802 -1.43141 122 ft 82 kts 46°
2026-04-21 12:23 54.51008 -1.42767 119 ft 15 kts 28°
2026-04-21 12:23 54.51057 -1.42830 121 ft 9 kts 277°
2026-04-21 12:23 54.51064 -1.42943 123 ft 10 kts 274°
2026-04-21 12:24 54.51068 -1.43067 123 ft 11 kts 271°
2026-04-21 12:24 54.51069 -1.43150 123 ft 6 kts 269°
2026-04-21 12:24 54.51069 -1.43154 123 ft 1 kts 269°
2026-04-21 12:24 54.51062 -1.43200 120 ft 7 kts 249°
2026-04-21 12:25 54.51084 -1.43263 123 ft 7 kts 326°
2026-04-21 12:25 54.51120 -1.43300 121 ft 1 kts 330°